Location: Waning Moon II Observatory
(30.3730°N, 89.7620°W)
Time: 16:32:36
(UTC-06:00)

Cosmos 1825 Rocket - Visible Passes

Search period start: 24 November 2014 00:00
Search period end: 04 December 2014 00:00
Orbit: 605 x 633 km, 82.5° (Epoch: 24 November)

Date Brightness Start Highest point End Pass type
(mag) Time Alt. Az. Time Alt. Az. Time Alt. Az.
24 Nov 6.5 05:58:27 10° NE 06:00:42 14° ENE 06:02:56 10° ESE visible
27 Nov 5.7 19:13:36 10° S 19:14:45 18° S 19:14:45 18° S visible
28 Nov 6.5 05:29:53 10° NE 05:32:19 15° ENE 05:34:43 10° ESE visible
28 Nov 5.7 19:31:17 10° SSW 19:33:10 23° SW 19:33:10 23° SW visible
29 Nov 5.6 05:46:02 10° NNE 05:49:49 29° E 05:53:33 10° SE visible
29 Nov 4.7 18:11:30 10° SE 18:14:22 24° ESE 18:14:22 24° ESE visible
29 Nov 6.2 19:49:40 10° SW 19:51:36 17° W 19:51:36 17° W visible
30 Nov 4.2 06:02:56 10° N 06:07:13 61° E 06:11:28 10° SSE visible
30 Nov 3.7 18:28:03 10° SSE 18:32:21 51° E 18:32:48 49° ENE visible
01 Dec 3.7 18:45:12 10° S 18:49:39 76° W 18:51:13 39° N visible
02 Dec 6.4 05:01:19 10° NE 05:03:54 16° ENE 05:06:29 10° ESE visible
02 Dec 5.3 17:27:27 10° ESE 17:29:34 13° E 17:31:41 10° ENE visible
02 Dec 5.0 19:02:56 10° SSW 19:07:01 36° W 19:09:36 19° NNW visible
03 Dec 5.4 05:17:33 10° NNE 05:21:24 31° E 05:25:12 10° SE visible
03 Dec 4.5 17:43:00 10° SSE 17:46:43 26° E 17:50:24 10° NNE visible
03 Dec 6.2 19:21:25 10° WSW 19:24:29 18° WNW 19:27:34 10° NNW visible
